NOAA 16 DEB, 41424

Orbit data source: Space-Track

NOAA 16 DEB, 41424 is space debris in SSO originally from a launch on Thu, 21 Sep 2000 UTC launched from the Air Force Western Test Range (AFWTR). Debris objects in space refer to the collection of defunct objects orbiting the Earth. Examples of debris include non-operational satellites, rocket bodies, and fragments generated from explosions, collisions, or faulty payload assembly.

Loading next visibility...
Identifier
41424, 2000-055LD
Orbit
SSO
Last TLE update
23 hours ago
Origin
Manufacturer
Unknown
Mission
Spacecraft
Bus & Motor
Unknown
Mass
Unknown
Launch date (UTC)
2000-09-21 (25 years ago)
Launch vehicle
Unknown
Launch site
Air Force Western Test Range (AFWTR)
Object type
Payload
Rocket body
Debris
Shape & HBR
Unknown
Radar Cross Section
Small (<0.1 m²)

Expand to show TLE details & history

TLE from 23 hours ago
0 NOAA 16 DEB
1 41424U 00055LD  25183.33634166  .00003823  00000-0  13325-2 0  9998
2 41424  98.9411 321.1993 0026085 108.1833 252.2195 14.35764916484549
Epoch: 2025-07-02T08:04Z
TLE epoch observation values (Epoch: 2025-07-02T08:04:19.919Z)
Latitude
0.00004°
Longitude
-80.50261°
Altitude
781.195 km
Speed
7.46 km/s
True Right ascension
21h 24m 47s
True Declination
0° 00' 00"
Sunlit
Object was in full shadow at epoch
Visualization orbit readout
Latitude
-61.28696°
Longitude
83.88447°
Altitude
809.667 km
Speed
7.44 km/s
Apparent Right ascension
07h 23m 26s
Apparent Declination
-51° 43' 48"
Sunlit
Object is in daylight
Visualization observer readout
Local Sidereal Time
18:42:03
Azimuth
207.775° SW
Elevation
-76.19°
Doppler factor
1
Orbital elements
Apogee altitude
788.319 km
Perigee altitude
751.029 km
Semi-major axis
7,147.811 km
Eccentricity
0.00261
Inclination
98.9411°
RAAN
321.1993°
Arg. of periapsis
108.1833°
True anomaly
Unknown
Mean anomaly
252.2195°
Eccentric anomaly
Unknown
Mean motion
3.59156 °/min
Orbital period
100.23 mins
BSTAR
0.0013325
Loading maneuver chart data...
Loading SW <> Apogee altitude chart data...
Loading historical data...
Loading historical data...
Loading historical data...
Loading historical data...
Loading historical data...
Loading historical data...
Loading historical data...

NOAA 16 DEB Visibility forecast

Observer location: undefined°, undefined°

Span
Click to sort rows by Start time (UTC) header in descending order
Start Az.
Max El. time (UTC)
Max El. Az.
Max El.
End time (UTC)
End Az.
4 mins2025-07-03 07:40:18.153Z84.81° E2025-07-03 07:42:18.153Z60.53° ENE12.943°2025-07-03 07:44:18.153Z36.11° NE
8 mins2025-07-03 09:17:18.153Z172.785° S2025-07-03 09:20:18.153Z208.553° SW43.199°2025-07-03 09:25:18.153Z342.389° N
7 mins2025-07-03 21:28:18.153Z44.117° NE2025-07-03 21:31:18.153Z99.912° ESE29.705°2025-07-03 21:35:18.153Z160.829° S
6 mins2025-07-03 23:07:18.153Z338.875° N2025-07-03 23:10:18.153Z290.722° WNW23.831°2025-07-03 23:13:18.153Z245.897° WSW
|